When you browse on this site, cookies collect data to enhance your experience and personalize the content and advertising you see.
Visit our Privacy Policy to learn more. By continuing to use the site, you agree to this use of cookies and data.
  • Em Portugal
  • Lista de países
  • Para 7 dias
  • Temperatura da água
  • Mapa do tempo
  • Widgets de tempo
  • user-avatar
    Iniciar Sessão

    Previsão horária em Costa Dourada

    Hoje, 19 Fevereiro, Quarta-feira

    Tempo Temperatura Precipitação Vento Pressão Humidade
    00:00 +25°C° 0 mm 3 m/s 752 mmHg 97%
    01:00 +25°C° 0 mm 4 m/s 752 mmHg 97%
    02:00 +25°C° 0 mm 4 m/s 751 mmHg 96%
    03:00 +25°C° 0 mm 3 m/s 751 mmHg 96%
    04:00 +25°C° 0 mm 4 m/s 751 mmHg 96%
    05:00 +25°C° 0 mm 4 m/s 751 mmHg 95%
    06:00 +26°C° 0 mm 3 m/s 751 mmHg 93%
    07:00 +26°C° 0 mm 3 m/s 752 mmHg 92%
    08:00 +28°C° 0 mm 4 m/s 752 mmHg 82%
    09:00 +30°C° 0 mm 4 m/s 751 mmHg 73%
    10:00 +33°C° 0 mm 4 m/s 751 mmHg 60%
    11:00 +34°C° 0 mm 4 m/s 751 mmHg 58%
    12:00 +35°C° 0 mm 5 m/s 751 mmHg 55%
    13:00 +36°C° 0 mm 5 m/s 750 mmHg 52%
    14:00 +35°C° 0.2 mm 5 m/s 749 mmHg 58%
    15:00 +34°C° 0.2 mm 5 m/s 749 mmHg 63%
    16:00 +34°C° 0.2 mm 5 m/s 748 mmHg 69%
    17:00 +32°C° 0.2 mm 5 m/s 749 mmHg 76%
    18:00 +29°C° 0.2 mm 4 m/s 749 mmHg 84%
    19:00 +27°C° 0.2 mm 4 m/s 749 mmHg 91%
    20:00 +27°C° 0.2 mm 4 m/s 749 mmHg 92%
    21:00 +26°C° 0.2 mm 4 m/s 750 mmHg 93%
    22:00 +26°C° 0.2 mm 4 m/s 750 mmHg 94%
    23:00 +25°C° 0 mm 4 m/s 750 mmHg 94%

    Amanhã, 20 Fevereiro, Quinta-feira

    Tempo Temperatura Precipitação Vento Pressão Humidade
    00:00 +25°C° 0 mm 3 m/s 750 mmHg 94%
    01:00 +24°C° 0 mm 2 m/s 750 mmHg 93%
    02:00 +24°C° 0 mm 2 m/s 750 mmHg 91%
    03:00 +23°C° 0 mm 2 m/s 750 mmHg 89%
    04:00 +23°C° 0 mm 2 m/s 750 mmHg 87%
    05:00 +23°C° 0 mm 2 m/s 750 mmHg 86%
    06:00 +22°C° 0 mm 3 m/s 751 mmHg 86%
    07:00 +23°C° 0 mm 4 m/s 752 mmHg 86%
    08:00 +26°C° 0 mm 4 m/s 752 mmHg 76%
    09:00 +29°C° 0 mm 4 m/s 752 mmHg 66%
    10:00 +32°C° 0 mm 4 m/s 753 mmHg 56%
    11:00 +33°C° 0 mm 4 m/s 752 mmHg 54%
    12:00 +33°C° 0 mm 5 m/s 752 mmHg 51%
    13:00 +34°C° 0 mm 5 m/s 752 mmHg 48%
    14:00 +33°C° 0 mm 5 m/s 752 mmHg 52%
    15:00 +32°C° 0 mm 5 m/s 752 mmHg 57%
    16:00 +29°C° 0 mm 5 m/s 751 mmHg 61%
    17:00 +28°C° 0 mm 5 m/s 752 mmHg 67%
    18:00 +26°C° 0 mm 5 m/s 753 mmHg 72%
    19:00 +25°C° 0 mm 5 m/s 754 mmHg 78%
    20:00 +23°C° 0 mm 4 m/s 754 mmHg 80%
    21:00 +23°C° 0 mm 4 m/s 755 mmHg 82%
    22:00 +22°C° 0 mm 3 m/s 756 mmHg 84%
    23:00 +22°C° 0.1 mm 3 m/s 755 mmHg 87%

    Depois de amanhã, 21 Fevereiro, Sexta-feira

    Tempo Temperatura Precipitação Vento Pressão Humidade
    00:00 +22°C° 0.1 mm 3 m/s 755 mmHg 89%
    01:00 +22°C° 0.1 mm 3 m/s 755 mmHg 91%
    02:00 +21°C° 0.3 mm 3 m/s 755 mmHg 92%
    03:00 +21°C° 0.3 mm 3 m/s 755 mmHg 94%
    04:00 +21°C° 0.3 mm 3 m/s 755 mmHg 96%
    05:00 +22°C° 0.2 mm 3 m/s 755 mmHg 94%
    06:00 +24°C° 0.2 mm 3 m/s 756 mmHg 92%
    07:00 +24°C° 0.2 mm 3 m/s 756 mmHg 91%
    08:00 +25°C° 0.3 mm 3 m/s 756 mmHg 85%
    09:00 +27°C° 0.3 mm 3 m/s 756 mmHg 79%
    10:00 +28°C° 0.3 mm 3 m/s 757 mmHg 73%
    11:00 +28°C° 0.4 mm 3 m/s 756 mmHg 74%
    12:00 +28°C° 0.4 mm 3 m/s 756 mmHg 74%
    13:00 +28°C° 0.4 mm 3 m/s 756 mmHg 75%
    14:00 +27°C° 0.4 mm 3 m/s 756 mmHg 78%
    15:00 +27°C° 0.4 mm 3 m/s 755 mmHg 81%
    16:00 +26°C° 0.4 mm 4 m/s 755 mmHg 84%
    23:00 +24°C° 0.2 mm 3 m/s 757 mmHg 90%

    22 Fevereiro, Sábado

    Tempo Temperatura Precipitação Vento Pressão Humidade
    00:00 +21°C° 0 mm 3 m/s 758 mmHg 90%
    01:00 +21°C° 0 mm 3 m/s 758 mmHg 89%
    02:00 +21°C° 0 mm 3 m/s 758 mmHg 89%
    03:00 +21°C° 0 mm 3 m/s 758 mmHg 88%
    04:00 +20°C° 0 mm 3 m/s 758 mmHg 88%
    05:00 +21°C° 0 mm 3 m/s 759 mmHg 86%
    06:00 +22°C° 0 mm 3 m/s 759 mmHg 84%
    07:00 +24°C° 0 mm 3 m/s 759 mmHg 81%
    08:00 +25°C° 0.3 mm 4 m/s 760 mmHg 78%
    09:00 +26°C° 0.3 mm 4 m/s 760 mmHg 74%
    10:00 +27°C° 0.3 mm 4 m/s 760 mmHg 71%
    11:00 +27°C° 0.8 mm 4 m/s 760 mmHg 75%
    12:00 +27°C° 0.8 mm 5 m/s 759 mmHg 79%
    13:00 +26°C° 0.8 mm 5 m/s 759 mmHg 83%
    14:00 +26°C° 0.7 mm 5 m/s 759 mmHg 85%
    15:00 +24°C° 0.7 mm 6 m/s 758 mmHg 86%
    16:00 +24°C° 0.7 mm 6 m/s 758 mmHg 87%
    17:00 +23°C° 0.1 mm 6 m/s 759 mmHg 87%
    18:00 +23°C° 0.1 mm 6 m/s 759 mmHg 87%
    19:00 +22°C° 0.1 mm 5 m/s 759 mmHg 86%
    20:00 +22°C° 0.1 mm 5 m/s 760 mmHg 87%
    21:00 +22°C° 0.1 mm 5 m/s 760 mmHg 88%
    22:00 +22°C° 0.1 mm 5 m/s 760 mmHg 88%
    23:00 +22°C° 0.1 mm 5 m/s 760 mmHg 89%

    23 Fevereiro, Domingo

    Tempo Temperatura Precipitação Vento Pressão Humidade
    00:00 +21°C° 0.1 mm 5 m/s 760 mmHg 90%
    01:00 +21°C° 0.1 mm 5 m/s 759 mmHg 91%
    02:00 +21°C° 0.1 mm 5 m/s 759 mmHg 91%
    03:00 +21°C° 0.1 mm 4 m/s 759 mmHg 91%
    04:00 +21°C° 0.1 mm 4 m/s 759 mmHg 91%
    05:00 +22°C° 0.3 mm 5 m/s 760 mmHg 92%
    06:00 +22°C° 0.3 mm 5 m/s 760 mmHg 92%
    07:00 +22°C° 0.3 mm 5 m/s 761 mmHg 92%
    08:00 +22°C° 0.8 mm 5 m/s 761 mmHg 92%
    09:00 +22°C° 0.8 mm 5 m/s 761 mmHg 92%
    10:00 +23°C° 0.8 mm 5 m/s 761 mmHg 93%
    11:00 +23°C° 1 mm 5 m/s 761 mmHg 93%
    12:00 +22°C° 1 mm 5 m/s 760 mmHg 93%
    13:00 +22°C° 1 mm 5 m/s 760 mmHg 93%
    14:00 +22°C° 2.4 mm 4 m/s 760 mmHg 94%
    15:00 +21°C° 2.4 mm 4 m/s 760 mmHg 95%
    16:00 +21°C° 2.4 mm 4 m/s 759 mmHg 97%
    17:00 +21°C° 3 mm 4 m/s 760 mmHg 96%
    18:00 +21°C° 3 mm 3 m/s 760 mmHg 96%
    19:00 +21°C° 3 mm 3 m/s 760 mmHg 96%
    20:00 +20°C° 0 mm 3 m/s 760 mmHg 96%
    21:00 +20°C° 0 mm 3 m/s 760 mmHg 95%
    22:00 +20°C° 0 mm 3 m/s 760 mmHg 95%
    23:00 +20°C° 0.1 mm 4 m/s 760 mmHg 95%

    24 Fevereiro, Segunda-feira

    Tempo Temperatura Precipitação Vento Pressão Humidade
    00:00 +20°C° 0.1 mm 4 m/s 759 mmHg 95%
    01:00 +21°C° 0.1 mm 4 m/s 759 mmHg 95%
    02:00 +20°C° 0.1 mm 4 m/s 759 mmHg 95%
    03:00 +20°C° 0.1 mm 4 m/s 759 mmHg 95%
    04:00 +20°C° 0.1 mm 4 m/s 759 mmHg 95%
    05:00 +21°C° 0.2 mm 4 m/s 759 mmHg 94%
    06:00 +21°C° 0.2 mm 4 m/s 759 mmHg 93%
    07:00 +22°C° 0.2 mm 4 m/s 760 mmHg 92%
    08:00 +23°C° 0.1 mm 4 m/s 759 mmHg 85%
    09:00 +26°C° 0.1 mm 4 m/s 759 mmHg 78%
    10:00 +28°C° 0.1 mm 4 m/s 759 mmHg 71%
    11:00 +27°C° 0.6 mm 4 m/s 759 mmHg 76%
    12:00 +27°C° 0.6 mm 4 m/s 759 mmHg 81%
    13:00 +27°C° 0.6 mm 3 m/s 758 mmHg 85%
    14:00 +26°C° 0.3 mm 3 m/s 758 mmHg 85%
    15:00 +26°C° 0.3 mm 3 m/s 758 mmHg 85%
    16:00 +26°C° 0.3 mm 3 m/s 757 mmHg 84%
    17:00 +25°C° 0.5 mm 4 m/s 757 mmHg 87%
    18:00 +23°C° 0.5 mm 4 m/s 758 mmHg 90%
    19:00 +23°C° 0.5 mm 4 m/s 758 mmHg 92%
    20:00 +22°C° 1 mm 4 m/s 758 mmHg 93%
    21:00 +22°C° 1 mm 4 m/s 758 mmHg 94%
    22:00 +22°C° 1 mm 4 m/s 758 mmHg 95%
    23:00 +21°C° 0.7 mm 3 m/s 758 mmHg 96%
    Mostrar mais